Muscatine, IA

1:49 PM CDT on July 24, 2017 (GMT -0500)
Muscatine Municipal

Weather History for KMUT - October, 2012

Change the Weather History Date:

Monday, October 8, 2012

  Actual Average Record
Temperature  
Mean Temperature 47 °F -  
Max Temperature 64 °F 68 °F 87 °F (1949)
Min Temperature 30 °F 46 °F 27 °F (1952)
Degree Days  
Heating Degree Days 18    
Moisture  
Dew Point 25 °F    
Average Humidity 45    
Maximum Humidity 75    
Minimum Humidity 15    
Precipitation  
Precipitation 0.00 in - - ()
Sea Level Pressure  
Sea Level Pressure 30.02 in    
Wind  
Wind Speed 7 mph (South)    
Max Wind Speed 25 mph    
Max Gust Speed 33 mph    
Visibility 10 miles    
Events      
Averages and records for this station are not official NWS values.
T = Trace of Precipitation, MM = Missing Value Source: NWS Daily Summary

Daily Weather History Graph

Daily Weather History Graph

Search for Another Location

Airport or City:

Trip Planner

Search our weather history database for the weather conditions in past years. The results will help you decide how hot, cold, wet, or windy it might be!

Date:

Astronomy

Oct. 08, 2012 Rise Set
Actual Time 7:09 AM CDT 6:33 PM CDT
Civil Twilight 6:41 AM CDT 7:01 PM CDT
Nautical Twilight 6:09 AM CDT 7:33 PM CDT
Astronomical Twilight 5:37 AM CDT 8:05 PM CDT
Moon No Moon Rise 2:27 PM CDT (10/8)
Length of Visible Light 12h 19m
Length of Day
11h 24m
Last Quarter, 46% of the Moon is Illuminated
Oct 8
Last Quarter
Oct 15
New
Oct 21
First Quarter
Oct 29
Full
Nov 6
Last Quarter

Hourly Weather History & Observations

Time (CDT) Temp. Windchill Dew Point Humidity Pressure Visibility Wind Dir Wind Speed Gust Speed Precip Events Conditions
12:15 AM 30.2 °F - 21.2 °F 69% 30.12 in 10.0 mi Calm Calm - N/A   Clear
12:35 AM 30.2 °F - 23.0 °F 75% 30.12 in 10.0 mi Calm Calm - N/A   Clear
12:55 AM 30.2 °F - 21.2 °F 69% 30.12 in 10.0 mi Calm Calm - N/A   Clear
1:15 AM 30.2 °F - 21.2 °F 69% 30.11 in 10.0 mi Calm Calm - N/A   Clear
1:35 AM 33.8 °F - 21.2 °F 60% 30.12 in 10.0 mi Calm Calm - N/A   Clear
1:55 AM 35.6 °F - 23.0 °F 60% 30.11 in 10.0 mi Calm Calm - N/A   Clear
2:15 AM 35.6 °F - 24.8 °F 65% 30.11 in 10.0 mi Calm Calm - N/A   Clear
2:35 AM 30.2 °F - 23.0 °F 75% 30.11 in 10.0 mi Calm Calm - N/A   Clear
2:55 AM 35.6 °F - 24.8 °F 65% 30.10 in 10.0 mi Calm Calm - N/A   Clear
3:15 AM 35.6 °F 32.8 °F 24.8 °F 65% 30.09 in 10.0 mi SSE 3.5 mph - N/A   Clear
3:35 AM 35.6 °F 32.8 °F 24.8 °F 65% 30.09 in 10.0 mi SE 3.5 mph - N/A   Clear
3:55 AM 35.6 °F 32.8 °F 24.8 °F 65% 30.08 in 10.0 mi SSE 3.5 mph - N/A   Clear
4:15 AM 35.6 °F 30.7 °F 24.8 °F 65% 30.08 in 10.0 mi SSE 5.8 mph - N/A   Clear
4:35 AM 33.8 °F 28.6 °F 24.8 °F 70% 30.09 in 10.0 mi SSE 5.8 mph - N/A   Clear
4:55 AM 35.6 °F 30.7 °F 24.8 °F 65% 30.09 in 10.0 mi South 5.8 mph - N/A   Clear
5:15 AM 35.6 °F 29.2 °F 26.6 °F 70% 30.08 in 10.0 mi South 8.1 mph - N/A   Clear
5:35 AM 35.6 °F 29.2 °F 26.6 °F 70% 30.08 in 10.0 mi South 8.1 mph - N/A   Clear
5:55 AM 35.6 °F 29.2 °F 24.8 °F 65% 30.09 in 10.0 mi South 8.1 mph - N/A   Clear
6:15 AM 35.6 °F 29.9 °F 24.8 °F 65% 30.09 in 10.0 mi South 6.9 mph - N/A   Clear
6:35 AM 35.6 °F 29.9 °F 26.6 °F 70% 30.09 in 10.0 mi South 6.9 mph - N/A   Clear
6:55 AM 35.6 °F 29.9 °F 26.6 °F 70% 30.09 in 10.0 mi South 6.9 mph - N/A   Clear
7:15 AM 33.8 °F 27.7 °F 26.6 °F 75% 30.09 in 10.0 mi South 6.9 mph - N/A   Clear
7:35 AM 35.6 °F 29.2 °F 26.6 °F 70% 30.09 in 10.0 mi South 8.1 mph - N/A   Clear
7:55 AM 37.4 °F 31.4 °F 26.6 °F 65% 30.09 in 10.0 mi South 8.1 mph - N/A   Clear
8:15 AM 39.2 °F 34.2 °F 28.4 °F 65% 30.09 in 10.0 mi South 6.9 mph - N/A   Clear
8:35 AM 41.0 °F 35.8 °F 28.4 °F 61% 30.09 in 10.0 mi SSE 8.1 mph - N/A   Clear
8:55 AM 42.8 °F 39.3 °F 28.4 °F 57% 30.09 in 10.0 mi SSE 5.8 mph - N/A   Clear
9:15 AM 46.4 °F 42.9 °F 28.4 °F 50% 30.09 in 10.0 mi South 6.9 mph - N/A   Clear
9:35 AM 48.2 °F - 28.4 °F 46% 30.09 in 10.0 mi SSW 10.4 mph - N/A   Clear
9:55 AM 51.8 °F - 28.4 °F 41% 30.08 in 10.0 mi South 11.5 mph - N/A   Clear
10:15 AM 53.6 °F - 28.4 °F 38% 30.07 in 10.0 mi South 13.8 mph - N/A   Clear
10:35 AM 55.4 °F - 28.4 °F 36% 30.07 in 10.0 mi SSW 13.8 mph - N/A   Clear
10:55 AM 57.2 °F - 26.6 °F 31% 30.06 in 10.0 mi SSW 17.3 mph 24.2 mph N/A   Clear
11:15 AM 57.2 °F - 26.6 °F 31% 30.06 in 10.0 mi SSW 17.3 mph - N/A   Clear
11:35 AM 59.0 °F - 24.8 °F 27% 30.05 in 10.0 mi SSW 17.3 mph 27.6 mph N/A   Clear
11:55 AM 60.8 °F - 24.8 °F 25% 30.05 in 10.0 mi SSW 20.7 mph 28.8 mph N/A   Clear
12:15 PM 60.8 °F - 24.8 °F 25% 30.03 in 10.0 mi SSW 20.7 mph 26.5 mph N/A   Clear
12:55 PM 62.6 °F - 24.8 °F 24% 30.02 in 10.0 mi South 21.9 mph 27.6 mph N/A   Clear
1:15 PM 64.4 °F - 23.0 °F 21% 30.01 in 10.0 mi SSW 19.6 mph 28.8 mph N/A   Clear
1:35 PM 64.4 °F - 21.2 °F 19% 30.00 in 10.0 mi SSW 25.3 mph 29.9 mph N/A   Clear
1:55 PM 64.4 °F - 21.2 °F 19% 29.98 in 10.0 mi SSW 19.6 mph 27.6 mph N/A   Clear
2:15 PM 64.4 °F - 19.4 °F 18% 29.98 in 10.0 mi SSW 19.6 mph 27.6 mph N/A   Clear
2:35 PM 64.4 °F - 19.4 °F 18% 29.97 in 10.0 mi SSW 18.4 mph 33.4 mph N/A   Clear
2:55 PM 64.4 °F - 19.4 °F 18% 29.96 in 10.0 mi SSW 19.6 mph 29.9 mph N/A   Clear
3:15 PM 64.4 °F - 19.4 °F 18% 29.95 in 10.0 mi SW 17.3 mph 26.5 mph N/A   Clear
3:35 PM 64.4 °F - 17.6 °F 16% 29.95 in 10.0 mi SSW 21.9 mph 27.6 mph N/A   Clear
3:55 PM 64.4 °F - 17.6 °F 16% 29.94 in 10.0 mi SW 18.4 mph 26.5 mph N/A   Clear
4:15 PM 64.4 °F - 17.6 °F 16% 29.94 in 10.0 mi SW 20.7 mph 26.5 mph N/A   Clear
4:35 PM 64.4 °F - 15.8 °F 15% 29.94 in 10.0 mi SSW 18.4 mph 26.5 mph N/A   Clear
4:55 PM 64.4 °F - 17.6 °F 16% 29.94 in 10.0 mi SSW 19.6 mph 26.5 mph N/A   Clear
5:15 PM 62.6 °F - 17.6 °F 18% 29.94 in 10.0 mi SSW 16.1 mph 20.7 mph N/A   Clear
5:35 PM 62.6 °F - 17.6 °F 18% 29.94 in 10.0 mi SSW 18.4 mph 24.2 mph N/A   Clear
5:55 PM 60.8 °F - 19.4 °F 20% 29.94 in 10.0 mi SSW 15.0 mph 20.7 mph N/A   Clear
6:15 PM 60.8 °F - 21.2 °F 22% 29.93 in 10.0 mi SSW 16.1 mph - N/A   Clear
6:35 PM 57.2 °F - 21.2 °F 25% 29.93 in 7.0 mi South 12.7 mph 19.6 mph N/A   Clear
6:55 PM 57.2 °F - 21.2 °F 25% 29.93 in 10.0 mi South 9.2 mph - N/A   Clear
7:15 PM 53.6 °F - 24.8 °F 33% 29.94 in 10.0 mi South 8.1 mph - N/A   Clear
7:35 PM 53.6 °F - 24.8 °F 33% 29.94 in 10.0 mi South 8.1 mph - N/A   Clear
7:55 PM 51.8 °F - 26.6 °F 38% 29.94 in 10.0 mi South 8.1 mph - N/A   Clear
8:15 PM 51.8 °F - 28.4 °F 41% 29.95 in 10.0 mi South 8.1 mph - N/A   Clear
8:35 PM 51.8 °F - 28.4 °F 41% 29.95 in 10.0 mi South 8.1 mph - N/A   Clear
8:55 PM 51.8 °F - 30.2 °F 44% 29.95 in 10.0 mi South 9.2 mph - N/A   Clear
9:15 PM 53.6 °F - 28.4 °F 38% 29.95 in 10.0 mi South 9.2 mph - N/A   Clear
9:35 PM 53.6 °F - 28.4 °F 38% 29.96 in 10.0 mi South 9.2 mph - N/A   Clear
9:55 PM 53.6 °F - 28.4 °F 38% 29.95 in 10.0 mi South 11.5 mph - N/A   Clear
10:15 PM 51.8 °F - 30.2 °F 44% 29.96 in 10.0 mi South 9.2 mph - N/A   Clear
10:55 PM 48.2 °F - 32.0 °F 54% 29.95 in 10.0 mi South 9.2 mph - N/A   Clear
11:15 PM 48.2 °F - 32.0 °F 54% 29.95 in 10.0 mi South 8.1 mph - N/A   Scattered Clouds
11:35 PM 48.2 °F - 32.0 °F 54% 29.94 in 10.0 mi South 8.1 mph - N/A   Clear
11:55 PM 50.0 °F - 32.0 °F 50% 29.94 in 10.0 mi South 8.1 mph - N/A   Scattered Clouds